Weather observations for the past three days for
Fairfield / Travis Air Force Base
Imperial (Metric)
Date Time (pdt) Wind (mph) Vis. (mi.) Weather Sky Cond. Temperature (ºF) Relative Humidity Wind Chill (°F) Heat Index (°F) Pressure Precipitation (in)
Air Dwpt 6 hour altimeter (in) sea level (mb) 1 hr 3 hr 6 hr
Max. Min.
16 07:55 SW 24 10.00 Fair and Breezy CLR 61.2 50.2 67% 29.95 1014.9
16 06:55 SW 22 10.00 Fair and Breezy CLR 58.1 49.8 74% 29.94 1014.5
16 05:55 SW 24 10.00 Fair and Breezy CLR 57.2 49.3 75% 29.92 1013.8
16 04:55 SW 25 10.00 Fair and Breezy CLR 57.6 48.9 65.1 57.2 73% 29.9 1013.1
16 03:55 SW 21 10.00 Fair and Breezy CLR 57.9 49.6 74% 29.9 1013.1
16 02:55 SW 22 10.00 Fair and Breezy CLR 57.9 49.3 73% 29.9 1013.1
16 01:55 SW 21 10.00 Fair and Breezy CLR 58.6 49.3 71% 29.91 1013.5
16 00:55 SW 22 10.00 Fair and Breezy CLR 59.5 48.9 68% 29.9 1013.1
15 23:55 SW 21 10.00 Fair and Breezy CLR 61.5 48.7 63% 29.89 1012.8
15 22:55 SW 23 10.00 Fair and Breezy CLR 65.3 49.3 83.1 64.6 56% 29.88 1012.5
15 21:55 SW 22 10.00 Fair and Breezy CLR 65.1 49.5 57% 29.9 1013.2
15 20:55 SW 21 10.00 Fair and Breezy CLR 66.4 51.6 59% 29.9 1013.2
15 19:55 SW 25 10.00 Fair and Breezy CLR 71.4 52.9 52% 29.89 1012.8
15 18:55 SW 28 G 31 10.00 Fair and Windy CLR 75.9 52.3 44% 78 29.88 1012.5
15 17:55 SW 21 G 29 10.00 Fair and Breezy CLR 80.2 53.1 39% 80 29.89 1012.8
15 16:55 SW 24 10.00 Fair and Breezy CLR 83.1 52.5 86.2 72.9 35% 82 29.9 1013.1
15 15:55 SW 25 10.00 Fair and Breezy CLR 84.9 51.8 32% 83 29.91 1013.5
15 14:55 SW 24 10.00 Fair and Breezy CLR 85.8 52.5 32% 84 29.93 1014.2
15 13:55 SW 21 10.00 Fair and Breezy CLR 82.2 50.2 33% 81 29.94 1014.5
15 12:55 SW 24 10.00 A Few Clouds and Breezy FEW200 80.1 50.7 36% 80 29.97 1015.5
15 11:55 SW 23 10.00 A Few Clouds and Breezy FEW200 76.5 50.4 40% 78 29.98 1015.9
15 10:55 SW 25 10.00 Fair and Breezy CLR 73 51.1 73 56.8 46% 29.99 1016.2
15 09:55 W 26 G 33 10.00 Fair and Windy CLR 67.6 50.9 55% 29.99 1016.2
15 08:55 SW 29 10.00 Fair and Windy CLR 64 52 65% 29.99 1016.2
15 07:55 SW 25 G 35 10.00 Fair and Breezy CLR 60.3 52 74% 29.98 1015.9
15 06:55 SW 25 10.00 Fair and Breezy CLR 57.9 52.2 81% 29.97 1015.5
15 05:55 SW 26 10.00 Fair and Windy CLR 57.4 51.3 80% 29.95 1014.8
15 04:55 SW 29 10.00 A Few Clouds and Windy FEW170 57.9 51.4 64.6 57.9 79% 29.94 1014.5
15 03:55 SW 28 G 33 10.00 Partly Cloudy and Windy SCT170 58.5 51.6 78% 29.92 1013.8
15 02:55 SW 29 G 35 10.00 Mostly Cloudy and Windy BKN180 59 51.8 77% 29.92 1013.8
15 01:55 SW 25 G 32 10.00 Mostly Cloudy and Breezy BKN180 59.9 52 75% 29.92 1013.8
15 00:55 SW 24 G 32 10.00 Mostly Cloudy and Breezy BKN180 60.6 51.6 72% 29.92 1013.8
14 23:55 SW 25 G 32 10.00 Fair and Breezy CLR 61.3 51.8 71% 29.93 1014.2
14 22:55 SW 24 G 30 10.00 Fair and Breezy CLR 64.6 52.5 88.5 64.6 65% 29.92 1013.8
14 21:55 SW 24 10.00 Fair and Breezy CLR 66.6 53.6 63% 29.91 1013.5
14 20:55 SW 25 G 31 10.00 Fair and Breezy CLR 67.8 55.2 64% 29.88 1012.5
14 19:55 SW 24 G 31 10.00 Fair and Breezy CLR 73.6 55.4 53% 29.88 1012.5
14 18:55 SW 25 10.00 Fair and Breezy CLR 79.2 55.4 44% 80 29.88 1012.5
14 17:55 SW 20 10.00 Fair CLR 84.6 55.4 37% 83 29.89 1012.8
14 16:55 SW 18 10.00 Fair CLR 88.5 55.8 92.8 74.5 33% 87 29.9 1013.1
14 15:55 W 18 10.00 Fair CLR 90.3 53.8 29% 88 29.92 1013.8
14 14:55 SW 17 10.00 Fair CLR 92.1 52.2 26% 89 29.94 1014.5
14 13:55 SW 18 10.00 Fair CLR 90.9 51.3 26% 88 29.95 1014.8
14 12:55 SW 18 10.00 A Few Clouds FEW200 88 50.7 28% 85 29.96 1015.2
14 11:55 SW 17 10.00 A Few Clouds FEW170 FEW190 FEW210 82.8 52.3 35% 82 29.98 1015.8
14 10:55 W 15 10.00 Fair CLR 74.5 49.8 76.5 59.2 42% 30 1016.5
14 09:55 SW 18 10.00 Partly Cloudy FEW130 SCT200 70 53.6 56% 30.01 1016.9
14 08:55 SW 24 G 30 10.00 Partly Cloudy and Breezy FEW150 SCT200 64.2 53.8 69% 29.98 1015.9
14 07:55 W 23 10.00 Mostly Cloudy and Breezy BKN170 61.5 53.4 75% 29.95 1014.8
14 06:55 SW 22 10.00 Partly Cloudy and Breezy FEW170 SCT210 59.5 53.8 81% 29.95 1014.8
14 05:55 SW 22 G 30 10.00 Mostly Cloudy and Breezy BKN170 59.5 53.4 80% 29.93 1014.2
14 04:55 SW 24 10.00 Partly Cloudy and Breezy SCT220 60.1 53.2 66.7 60.1 78% 29.9 1013.1
14 03:55 SW 25 10.00 Mostly Cloudy and Breezy BKN170 BKN200 BKN230 61.5 52.3 72% 29.88 1012.5
14 02:55 SW 21 10.00 Partly Cloudy and Breezy FEW170 SCT230 64 52 65% 29.86 1011.8
14 01:55 SW 18 G 29 10.00 A Few Clouds FEW190 65.8 52.5 62% 29.86 1011.8
14 00:55 SW 17 10.00 Fair CLR 65.8 52.5 62% 29.85 1011.4
13 23:55 SW 15 10.00 Fair CLR 65.1 53.4 66% 29.85 1011.4
13 22:55 SW 18 G 29 10.00 A Few Clouds FEW170 66.7 52.9 86.9 66.7 61% 29.87 1012.1
13 21:55 W 28 10.00 Fair and Windy CLR 70.5 49.8 48% 29.86 1011.8
13 20:55 SW 24 G 31 10.00 Fair and Breezy CLR 70 51.4 52% 29.85 1011.5
13 19:55 SW 21 10.00 Mostly Cloudy and Breezy BKN170 75.2 50.5 42% 78 29.86 1011.8
13 18:55 SW 22 10.00 Fair and Breezy CLR 77.2 52.3 42% 78 29.83 1010.8
13 17:55 SW 26 G 32 10.00 Fair and Windy CLR 80.8 53.4 39% 80 29.82 1010.4
13 16:55 W 26 G 35 10.00 Fair and Windy CLR 85.6 54 91.4 75.4 34% 84 29.8 1009.7
13 15:55 W 29 G 37 10.00 Fair and Windy CLR 84.2 54.3 36% 83 29.81 1010.1
13 14:55 SW 20 10.00 A Few Clouds FEW180 FEW210 89.4 55.6 32% 88 29.82 1010.4
13 13:55 SW 23 G 29 10.00 A Few Clouds and Breezy FEW160 87.3 56.3 35% 86 29.83 1010.8
13 12:55 SW 25 10.00 Partly Cloudy and Breezy FEW110 FEW140 FEW160 SCT190 87.8 50.5 28% 85 29.83 1010.8
13 11:55 W 21 10.00 Partly Cloudy and Breezy FEW140 SCT170 SCT200 81.7 53.6 38% 81 29.81 1010.1
13 10:55 W 22 10.00 Partly Cloudy and Breezy FEW170 SCT200 75.6 52.2 77.2 61.2 44% 78 29.84 1011.1
13 09:55 W 17 10.00 A Few Clouds FEW190 73.9 54.7 51% 29.86 1011.8
13 08:55 W 23 10.00 A Few Clouds and Breezy FEW210 68 54 61% 29.81 1010.1
Date Time (pdt) Wind (mph) Vis. (mi.) Weather Sky Cond. Air Dwpt Max. Min. Relative Humidity Wind Chill (°F) Heat Index (°F) altimeter (in) sea level (mb) 1 hr 3 hr 6 hr
6 hour
Temperature (ºF) Pressure Precipitation (in)